Regional Weather Roundup
Issued by NWS

Home | Current Version | Previous Version | Text Only | Print | Product List | Glossary Off
Versions: 1 2 3 4 5 6 7 8 9 10 11 12 13 14 15 16 17 18 19 20 21 22 23 24 25 26 27 28 29 30 31 32 33 34 35 36 37 38 39 40 41 42 43 44 45 46 47 48 49 50

049
ASUS43 KOAX 200110
RWRNE

WEATHER ROUNDUP FOR NEBRASKA
NATIONAL WEATHER SERVICE OMAHA NE
800 PM CDT TUE SEP 19 2017

NOTES: SATELLITE DATA IS BEING USED TO AUGMENT CLOUD COVER ABOVE
       12000 FEET.
       "FAIR" INDICATES FEW OR NO CLOUDS BELOW 12,000 FEET WITH NO
       SIGNIFICANT WEATHER AND/OR OBSTRUCTIONS TO VISIBILITY.


NEZ001>004-019>022-054>056-200200-
NEBRASKA PANHANDLE

CITY           SKY/WX    TMP DP  RH WIND       PRES   REMARKS
SCOTTSBLUFF    MOCLDY    58  32  37 W17G26    29.79R
ALLIANCE       PTCLDY    60  32  34 NW20      29.75R
CHADRON        CLOUDY    63  31  30 W14       29.70S
GORDON         CLOUDY    62  41  46 NW12      29.69S
KIMBALL        CLEAR     53  33  47 NW24G32   29.80R
SIDNEY         CLEAR     58  33  39 NW35G46   29.77R
$$

NEZ057>060-069>072-079>082-200200-
SOUTHWEST NEBRASKA

CITY           SKY/WX    TMP DP  RH WIND       PRES   REMARKS
NORTH PLATTE   CLOUDY    69  54  58 W3        29.51R
IMPERIAL       CLOUDY    69  41  36 N30G41    29.61R
LEXINGTON      CLOUDY    79  51  38 S10       29.48S
MCCOOK         CLOUDY    78  32  18 SE6       29.49R
OGALLALA       CLOUDY    69  39  34 N37G47    29.62R
$$

NEZ005>010-023>029-035>040-094-200200-
NORTH CENTRAL NEBRASKA

CITY           SKY/WX    TMP DP  RH WIND       PRES   REMARKS
VALENTINE      CLEAR     74  47  38 NW30G38   29.54R
AINSWORTH      CLOUDY    73  65  76 NW6       29.50S
BROKEN BOW     CLOUDY    68  55  63 CALM      29.47S
O`NEILL        CLEAR     79  68  69 SE6       29.48F
ORD            CLEAR     79  64  60 SE5       29.45S
THEDFORD       CLOUDY    71  44  38 NW23G37   29.58R
$$

NEZ041-046>049-061>064-073>077-083>087-200200-
SOUTH CENTRAL NEBRASKA

CITY           SKY/WX    TMP DP  RH WIND       PRES   REMARKS
GRAND ISLAND   CLOUDY    83  67  58 S16G23    29.49R
AURORA         CLOUDY    83  66  55 S14G21    29.49R
HASTINGS       CLOUDY    86  63  45 S13       29.49R
HEBRON         CLOUDY    87  66  50 S16G22    29.51F
HOLDREGE       CLOUDY    82  39  21 S8        29.49R
KEARNEY        CLOUDY    77  61  57 S9        29.49R
YORK           CLOUDY    84  68  58 S15G23    29.50S
$$

NEZ011>018-030>034-042>045-200200-
NORTHEAST NEBRASKA

CITY           SKY/WX    TMP DP  RH WIND       PRES   REMARKS
NORFOLK        CLOUDY    80  68  66 SE16G26   29.49S
ALBION         CLOUDY    81  69  66 SE10      29.48F
BLAIR          MOCLDY    82  69  64 SE17G33   29.58R
COLUMBUS       CLOUDY    83  69  62 SE13      29.51R
FREMONT        CLOUDY    83  67  60 SE18G28   29.54F
TEKAMAH        MOCLDY    81  67  62 SE15      29.55R
WAYNE          CLOUDY    78  72  81 SE14      29.52S
$$

NEZ050>053-065>068-078-088>093-200200-
SOUTHEAST NEBRASKA

CITY           SKY/WX    TMP DP  RH WIND       PRES   REMARKS
LINCOLN        CLOUDY    85  68  56 SE24G33   29.54S
OMAHA EPPLEY   MOCLDY    84  68  58 SE22G36   29.58R
BEATRICE       CLOUDY    85  70  60 SE14G20   29.56S HX  90
FALLS CITY     CLEAR     81  67  62 SE15G26   29.63S
NEBRASKA CITY  CLEAR     82  70  67 S18G26    29.61F
PLATTSMOUTH    CLOUDY    82  70  67 SE18G29   29.60S
$$

NEZ044-045-051>053-067-200200-
OMAHA AREA

CITY           SKY/WX    TMP DP  RH WIND       PRES   REMARKS
OMAHA EPPLEY   MOCLDY    84  68  58 SE22G36   29.58R
BLAIR          MOCLDY    82  69  64 SE17G33   29.58R
FREMONT        CLOUDY    83  67  60 SE18G28   29.54F
MILLARD        CLOUDY    84  71  65 SE17G25   29.58R
OFFUTT AFB     CLOUDY    82  68  63 SE21G29   29.58S
PLATTSMOUTH    CLOUDY    82  70  67 SE18G29   29.60S
WAHOO          FAIR      82  67  61 SE20      29.54S
$$




USA.gov is the U.S. government's official web portal to all federal, state and local government web resources and services.